| time (UTC) | temp F | wind direction | speed MPH | gust MPH | rain 1hr in | rain 24hr in | rain mn in | humidity % | barometer mb |
| 20260831115142 | 76 | 170 | 1.0 | 4.0 | 0.00 | 0.00 | 0.00 | 88 | 1018.1 |
| 20260831114641 | 76 | 210 | 4.0 | 4.0 | 0.00 | 0.00 | 0.00 | 88 | 1017.9 |
| 20260831114136 | 76 | 192 | 2.0 | 3.0 | 0.00 | 0.00 | 0.00 | 87 | 1017.9 |
| 20260831113636 | 76 | 209 | 4.0 | 4.0 | 0.00 | 0.00 | 0.00 | 87 | 1017.9 |
| 20260831113131 | 76 | 204 | 1.0 | 7.0 | 0.00 | 0.00 | 0.00 | 87 | 1017.8 |
| 20260831112630 | 76 | 211 | 1.0 | 4.0 | 0.00 | 0.00 | 0.00 | 87 | 1017.8 |
| 20260831112125 | 76 | 179 | 2.0 | 4.0 | 0.00 | 0.00 | 0.00 | 86 | 1017.7 |
| 20260831111621 | 76 | 188 | 4.0 | 6.0 | 0.00 | 0.00 | 0.00 | 86 | 1017.9 |
| 20260831111117 | 76 | 172 | 2.0 | 3.0 | 0.00 | 0.00 | 0.00 | 86 | 1017.8 |
| 20260831110613 | 76 | 178 | 3.0 | 3.0 | 0.00 | 0.00 | 0.00 | 86 | 1017.7 |
| 20260831110108 | 76 | 180 | 0.0 | 2.0 | 0.00 | 0.00 | 0.00 | 85 | 1017.5 |
| 20260831105606 | 76 | 175 | 2.0 | 2.0 | 0.00 | 0.00 | 0.00 | 85 | 1017.6 |
| 20260831105101 | 76 | 199 | 1.0 | 3.0 | 0.00 | 0.00 | 0.00 | 85 | 1017.7 |
| 20260831104557 | 76 | 200 | 1.0 | 3.0 | 0.00 | 0.00 | 0.00 | 85 | 1017.7 |
| 20260831104054 | 76 | 198 | 1.0 | 2.0 | 0.00 | 0.00 | 0.00 | 84 | 1017.8 |
| 20260831103548 | 76 | 188 | 2.0 | 3.0 | 0.00 | 0.00 | 0.00 | 84 | 1017.7 |
| 20260831103045 | 76 | 166 | 3.0 | 3.0 | 0.00 | 0.00 | 0.00 | 84 | 1017.8 |
| 20260831102544 | 76 | 211 | 1.0 | 2.0 | 0.00 | 0.00 | 0.00 | 83 | 1017.6 |
| 20260831102039 | 76 | 162 | 1.0 | 4.0 | 0.00 | 0.00 | 0.00 | 83 | 1017.6 |
| 20260831101534 | 77 | 202 | 1.0 | 2.0 | 0.00 | 0.00 | 0.00 | 83 | 1017.5 |
| 20260831101030 | 77 | 226 | 2.0 | 3.0 | 0.00 | 0.00 | 0.00 | 82 | 1017.8 |
| 20260831100526 | 77 | 182 | 1.0 | 3.0 | 0.00 | 0.00 | 0.00 | 82 | 1017.7 |
| 20260831100022 | 77 | 176 | 2.0 | 4.0 | 0.00 | 0.00 | 0.00 | 81 | 1017.6 |
| 20260831095520 | 77 | 190 | 1.0 | 3.0 | 0.00 | 0.00 | 0.00 | 81 | 1017.7 |
| 20260831095015 | 77 | 218 | 2.0 | 6.0 | 0.00 | 0.00 | 0.00 | 81 | 1017.5 |
| 20260831094511 | 77 | 180 | 2.0 | 3.0 | 0.00 | 0.00 | 0.00 | 80 | 1017.5 |
| 20260831094007 | 77 | 223 | 3.0 | 3.0 | 0.00 | 0.00 | 0.00 | 80 | 1017.5 |
| 20260831093507 | 77 | 231 | 2.0 | 4.0 | 0.00 | 0.00 | 0.00 | 79 | 1017.5 |
| 20260831093003 | 77 | 197 | 2.0 | 4.0 | 0.00 | 0.00 | 0.00 | 79 | 1017.5 |
| 20260831092459 | 77 | 167 | 2.0 | 4.0 | 0.00 | 0.00 | 0.00 | 79 | 1017.4 |
| 20260831091954 | 78 | 219 | 1.0 | 2.0 | 0.00 | 0.00 | 0.00 | 78 | 1017.4 |
| 20260831091449 | 78 | 183 | 1.0 | 3.0 | 0.00 | 0.00 | 0.00 | 78 | 1017.4 |
| 20260831090944 | 78 | 176 | 2.0 | 4.0 | 0.00 | 0.00 | 0.00 | 78 | 1017.5 |
| 20260831090440 | 78 | 201 | 3.0 | 4.0 | 0.00 | 0.00 | 0.00 | 77 | 1017.4 |
| 20260831085936 | 78 | 208 | 2.0 | 4.0 | 0.00 | 0.00 | 0.00 | 77 | 1017.4 |
| 20260831085431 | 78 | 194 | 1.0 | 3.0 | 0.00 | 0.00 | 0.00 | 77 | 1017.4 |
| 20260831084930 | 78 | 222 | 3.0 | 3.0 | 0.00 | 0.00 | 0.00 | 76 | 1017.3 |
| 20260831084427 | 78 | 212 | 1.0 | 3.0 | 0.00 | 0.00 | 0.00 | 76 | 1017.5 |
| 20260831083923 | 78 | 179 | 4.0 | 4.0 | 0.00 | 0.00 | 0.00 | 75 | 1017.4 |
| 20260831083418 | 78 | 174 | 2.0 | 3.0 | 0.00 | 0.00 | 0.00 | 75 | 1017.4 |
| 20260831082917 | 78 | 184 | 2.0 | 3.0 | 0.00 | 0.00 | 0.00 | 75 | 1017.4 |
| 20260831082412 | 79 | 200 | 2.0 | 3.0 | 0.00 | 0.00 | 0.00 | 74 | 1017.2 |
| 20260831081907 | 79 | 156 | 3.0 | 3.0 | 0.00 | 0.00 | 0.00 | 74 | 1017.2 |
| 20260831081403 | 79 | 215 | 3.0 | 4.0 | 0.00 | 0.00 | 0.00 | 73 | 1017.3 |
| 20260831080858 | 79 | 211 | 2.0 | 4.0 | 0.00 | 0.00 | 0.00 | 73 | 1017.3 |
| 20260831080353 | 79 | 228 | 1.0 | 3.0 | 0.00 | 0.00 | 0.00 | 72 | 1017.2 |
| 20260831075849 | 79 | 202 | 2.0 | 2.0 | 0.00 | 0.00 | 0.00 | 72 | 1017.3 |
| 20260831075350 | 79 | 221 | 2.0 | 4.0 | 0.00 | 0.00 | 0.00 | 71 | 1017.3 |
| 20260831074845 | 80 | 204 | 2.0 | 3.0 | 0.00 | 0.00 | 0.00 | 71 | 1017.1 |
| 20260831074344 | 80 | 207 | 2.0 | 2.0 | 0.00 | 0.00 | 0.00 | 70 | 1017.4 |
| 20260831073839 | 80 | 201 | 2.0 | 3.0 | 0.00 | 0.00 | 0.00 | 70 | 1017.4 |
| 20260831073338 | 80 | 202 | 3.0 | 3.0 | 0.00 | 0.00 | 0.00 | 69 | 1017.6 |
| 20260831072834 | 81 | 176 | 2.0 | 4.0 | 0.00 | 0.00 | 0.00 | 69 | 1017.4 |
| 20260831072329 | 81 | 210 | 2.0 | 4.0 | 0.00 | 0.00 | 0.00 | 68 | 1017.4 |
| 20260831071825 | 81 | 197 | 2.0 | 3.0 | 0.00 | 0.00 | 0.00 | 68 | 1017.4 |
| 20260831071324 | 81 | 160 | 2.0 | 3.0 | 0.00 | 0.00 | 0.00 | 67 | 1017.6 |
| 20260831070819 | 81 | 177 | 2.0 | 4.0 | 0.00 | 0.00 | 0.00 | 67 | 1017.6 |
| 20260831070318 | 82 | 210 | 5.0 | 7.0 | 0.00 | 0.00 | 0.00 | 66 | 1017.6 |
| 20260831065818 | 82 | 186 | 4.0 | 4.0 | 0.00 | 0.00 | 0.00 | 66 | 1017.7 |
| 20260831065316 | 82 | 158 | 3.0 | 4.0 | 0.00 | 0.00 | 0.00 | 66 | 1017.8 |
| 20260831064811 | 82 | 179 | 2.0 | 6.0 | 0.00 | 0.00 | 0.00 | 65 | 1017.6 |
| 20260831064306 | 82 | 182 | 4.0 | 4.0 | 0.00 | 0.00 | 0.00 | 65 | 1017.6 |
| 20260831063802 | 82 | 198 | 4.0 | 6.0 | 0.00 | 0.00 | 0.00 | 65 | 1017.6 |
| 20260831063257 | 82 | 174 | 3.0 | 4.0 | 0.00 | 0.00 | 0.00 | 64 | 1017.5 |
| 20260831062757 | 82 | 192 | 3.0 | 4.0 | 0.00 | 0.00 | 0.00 | 64 | 1017.3 |
| 20260831062252 | 82 | 145 | 2.0 | 3.0 | 0.00 | 0.00 | 0.00 | 64 | 1017.4 |
| 20260831061750 | 82 | 206 | 3.0 | 3.0 | 0.00 | 0.00 | 0.00 | 63 | 1017.4 |
| 20260831061245 | 83 | 236 | 2.0 | 4.0 | 0.00 | 0.00 | 0.00 | 63 | 1017.3 |
| 20260831060742 | 83 | 169 | 3.0 | 4.0 | 0.00 | 0.00 | 0.00 | 62 | 1017.3 |
| 20260831060241 | 83 | 223 | 3.0 | 4.0 | 0.00 | 0.00 | 0.00 | 62 | 1017.3 |
| 20260831055741 | 83 | 213 | 3.0 | 4.0 | 0.00 | 0.00 | 0.00 | 61 | 1017.3 |
| 20260831055241 | 83 | 224 | 1.0 | 4.0 | 0.00 | 0.00 | 0.00 | 61 | 1017.2 |
| 20260831054736 | 84 | 185 | 1.0 | 3.0 | 0.00 | 0.00 | 0.00 | 61 | 1017.3 |
| 20260831054232 | 84 | 193 | 3.0 | 4.0 | 0.00 | 0.00 | 0.00 | 60 | 1017.6 |
| 20260831053730 | 84 | 214 | 2.0 | 4.0 | 0.00 | 0.00 | 0.00 | 60 | 1017.4 |
| 20260831053229 | 84 | 210 | 4.0 | 4.0 | 0.00 | 0.00 | 0.00 | 60 | 1017.4 |
| 20260831052730 | 84 | 208 | 1.0 | 3.0 | 0.00 | 0.00 | 0.00 | 59 | 1017.1 |
| 20260831052228 | 84 | 223 | 5.0 | 6.0 | 0.00 | 0.00 | 0.00 | 59 | 1017.4 |
| 20260831051727 | 84 | 225 | 4.0 | 4.0 | 0.00 | 0.00 | 0.00 | 58 | 1017.3 |
| 20260831051226 | 84 | 182 | 4.0 | 6.0 | 0.00 | 0.00 | 0.00 | 58 | 1017.1 |
| 20260831050721 | 84 | 168 | 3.0 | 4.0 | 0.00 | 0.00 | 0.00 | 57 | 1017.1 |
| 20260831050220 | 84 | 198 | 2.0 | 4.0 | 0.00 | 0.00 | 0.00 | 57 | 1017.2 |
| 20260831045714 | 85 | 196 | 3.0 | 7.0 | 0.00 | 0.00 | 0.00 | 56 | 1016.9 |
| 20260831045210 | 85 | 203 | 4.0 | 4.0 | 0.00 | 0.00 | 0.00 | 56 | 1017.1 |
| 20260831044710 | 85 | 197 | 4.0 | 4.0 | 0.00 | 0.00 | 0.00 | 56 | 1017.1 |
| 20260831044205 | 85 | 208 | 2.0 | 7.0 | 0.00 | 0.00 | 0.00 | 55 | 1017.0 |
| 20260831043700 | 85 | 207 | 3.0 | 3.0 | 0.00 | 0.00 | 0.00 | 55 | 1016.9 |
| 20260831043155 | 85 | 208 | 2.0 | 3.0 | 0.00 | 0.00 | 0.00 | 54 | 1017.0 |
| 20260831042654 | 86 | 199 | 4.0 | 6.0 | 0.00 | 0.00 | 0.00 | 53 | 1016.8 |
| 20260831042150 | 86 | 167 | 5.0 | 6.0 | 0.00 | 0.00 | 0.00 | 53 | 1017.0 |
| 20260831041644 | 86 | 204 | 2.0 | 4.0 | 0.00 | 0.00 | 0.00 | 52 | 1016.9 |
| 20260831041144 | 87 | 202 | 3.0 | 4.0 | 0.00 | 0.00 | 0.00 | 52 | 1016.8 |
| 20260831040640 | 87 | 175 | 2.0 | 6.0 | 0.00 | 0.00 | 0.00 | 51 | 1016.9 |
| 20260831040138 | 87 | 183 | 6.0 | 7.0 | 0.00 | 0.00 | 0.00 | 50 | 1016.8 |
| 20260831035637 | 87 | 207 | 3.0 | 4.0 | 0.00 | 0.00 | 0.00 | 50 | 1016.8 |
| 20260831035132 | 87 | 179 | 2.0 | 4.0 | 0.00 | 0.00 | 0.00 | 50 | 1016.7 |
| 20260831034630 | 87 | 138 | 2.0 | 3.0 | 0.00 | 0.00 | 0.00 | 50 | 1016.6 |
| 20260831034126 | 87 | 226 | 2.0 | 4.0 | 0.00 | 0.00 | 0.00 | 49 | 1016.4 |
| 20260831033622 | 87 | 177 | 2.0 | 3.0 | 0.00 | 0.00 | 0.00 | 49 | 1016.5 |
| 20260831033117 | 87 | 198 | 3.0 | 3.0 | 0.00 | 0.00 | 0.00 | 49 | 1016.2 |
| 20260831032616 | 88 | 187 | 3.0 | 6.0 | 0.00 | 0.00 | 0.00 | 48 | 1016.3 |
| 20260831032113 | 88 | 211 | 3.0 | 4.0 | 0.00 | 0.00 | 0.00 | 48 | 1016.3 |
| 20260831031612 | 88 | 186 | 2.0 | 7.0 | 0.00 | 0.00 | 0.00 | 48 | 1016.3 |
| 20260831031111 | 88 | 205 | 2.0 | 3.0 | 0.00 | 0.00 | 0.00 | 48 | 1016.1 |
| 20260831030610 | 88 | 229 | 1.0 | 3.0 | 0.00 | 0.00 | 0.00 | 47 | 1016.2 |
| 20260831030110 | 88 | 237 | 1.0 | 2.0 | 0.00 | 0.00 | 0.00 | 47 | 1016.2 |
| 20260831025608 | 88 | 197 | 2.0 | 3.0 | 0.00 | 0.00 | 0.00 | 47 | 1016.2 |
| 20260831025103 | 89 | 186 | 3.0 | 3.0 | 0.00 | 0.00 | 0.00 | 47 | 1016.2 |
| 20260831024600 | 89 | 209 | 1.0 | 4.0 | 0.00 | 0.00 | 0.00 | 47 | 1016.2 |
| 20260831024058 | 89 | 197 | 2.0 | 3.0 | 0.00 | 0.00 | 0.00 | 46 | 1015.8 |
| 20260831023556 | 89 | 222 | 1.0 | 4.0 | 0.00 | 0.00 | 0.00 | 46 | 1016.0 |
| 20260831023056 | 89 | 189 | 2.0 | 3.0 | 0.00 | 0.00 | 0.00 | 46 | 1015.7 |
| 20260831022551 | 89 | 219 | 0.0 | 3.0 | 0.00 | 0.00 | 0.00 | 46 | 1015.7 |
| 20260831022046 | 89 | 184 | 1.0 | 2.0 | 0.00 | 0.00 | 0.00 | 45 | 1015.7 |
| 20260831021544 | 89 | 162 | 1.0 | 6.0 | 0.00 | 0.00 | 0.00 | 45 | 1015.7 |
| 20260831021041 | 89 | 214 | 3.0 | 3.0 | 0.00 | 0.00 | 0.00 | 46 | 1015.6 |
| 20260831020536 | 89 | 197 | 1.0 | 1.0 | 0.00 | 0.00 | 0.00 | 46 | 1015.6 |
| 20260831020031 | 89 | 216 | 0.0 | 1.0 | 0.00 | 0.00 | 0.00 | 45 | 1015.5 |
| 20260831015527 | 89 | 217 | 0.0 | 1.0 | 0.00 | 0.00 | 0.00 | 45 | 1015.4 |
| 20260831015021 | 89 | 220 | 0.0 | 2.0 | 0.00 | 0.00 | 0.00 | 45 | 1015.2 |
| 20260831014516 | 90 | 224 | 0.0 | 1.0 | 0.00 | 0.00 | 0.00 | 44 | 1015.3 |
| 20260831014012 | 90 | 185 | 0.0 | 0.0 | 0.00 | 0.00 | 0.00 | 44 | 1015.2 |
| 20260831013508 | 91 | 206 | 1.0 | 1.0 | 0.00 | 0.00 | 0.00 | 43 | 1015.2 |
| 20260831013008 | 91 | 217 | 0.0 | 1.0 | 0.00 | 0.00 | 0.00 | 43 | 1015.3 |
| 20260831012503 | 91 | 219 | 1.0 | 2.0 | 0.00 | 0.00 | 0.00 | 42 | 1015.1 |
| 20260831012002 | 91 | 224 | 1.0 | 1.0 | 0.00 | 0.00 | 0.00 | 42 | 1015.0 |
| 20260831011457 | 92 | 218 | 1.0 | 2.0 | 0.00 | 0.00 | 0.00 | 42 | 1015.1 |
| 20260831010953 | 92 | 224 | 1.0 | 2.0 | 0.00 | 0.00 | 0.00 | 41 | 1014.9 |
| 20260831010453 | 93 | 214 | 0.0 | 1.0 | 0.00 | 0.00 | 0.00 | 41 | 1014.9 |
| 20260831005948 | 93 | 183 | 2.0 | 2.0 | 0.00 | 0.00 | 0.00 | 40 | 1014.9 |
| 20260831005444 | 93 | 187 | 0.0 | 1.0 | 0.00 | 0.00 | 0.00 | 40 | 1014.9 |
| 20260831004943 | 94 | 186 | 1.0 | 3.0 | 0.00 | 0.00 | 0.00 | 39 | 1014.9 |
| 20260831004440 | 94 | 188 | 2.0 | 3.0 | 0.00 | 0.00 | 0.00 | 39 | 1015.0 |
| 20260831003935 | 94 | 179 | 2.0 | 4.0 | 0.00 | 0.00 | 0.00 | 39 | 1014.9 |
| 20260831003431 | 95 | 195 | 1.0 | 3.0 | 0.00 | 0.00 | 0.00 | 38 | 1014.8 |
| 20260831002931 | 95 | 225 | 1.0 | 2.0 | 0.00 | 0.00 | 0.00 | 38 | 1014.9 |
| 20260831002430 | 95 | 239 | 1.0 | 4.0 | 0.00 | 0.00 | 0.00 | 37 | 1014.8 |
| 20260831001926 | 96 | 175 | 2.0 | 3.0 | 0.00 | 0.00 | 0.00 | 37 | 1014.9 |
| 20260831001421 | 96 | 102 | 1.0 | 2.0 | 0.00 | 0.00 | 0.00 | 36 | 1014.8 |
| 20260831000918 | 96 | 223 | 1.0 | 6.0 | 0.00 | 0.00 | 0.00 | 36 | 1014.9 |
| 20260831000414 | 96 | 119 | 2.0 | 6.0 | 0.00 | 0.00 | 0.00 | 36 | 1015.1 |
| 20260830235911 | 96 | 208 | 0.0 | 3.0 | 0.00 | 0.00 | 0.00 | 36 | 1015.0 |
| 20260830235407 | 96 | 83 | 3.0 | 6.0 | 0.00 | 0.00 | 0.00 | 36 | 1014.7 |
| 20260830234902 | 96 | 117 | 2.0 | 3.0 | 0.00 | 0.00 | 0.00 | 36 | 1014.9 |
| 20260830234357 | 96 | 177 | 4.0 | 7.0 | 0.00 | 0.00 | 0.00 | 35 | 1014.8 |
| 20260830233853 | 97 | 154 | 3.0 | 6.0 | 0.00 | 0.00 | 0.00 | 36 | 1014.8 |
| 20260830233348 | 97 | 186 | 5.0 | 7.0 | 0.00 | 0.00 | 0.00 | 35 | 1014.8 |
| 20260830232844 | 97 | 217 | 4.0 | 9.0 | 0.00 | 0.00 | 0.00 | 35 | 1015.0 |
| 20260830232339 | 97 | 175 | 4.0 | 8.0 | 0.00 | 0.00 | 0.00 | 35 | 1014.9 |
| 20260830231836 | 97 | 203 | 2.0 | 7.0 | 0.00 | 0.00 | 0.00 | 35 | 1015.0 |
| 20260830231337 | 97 | 182 | 4.0 | 7.0 | 0.00 | 0.00 | 0.00 | 34 | 1014.9 |
| 20260830230836 | 98 | 204 | 1.0 | 3.0 | 0.00 | 0.00 | 0.00 | 33 | 1015.0 |
| 20260830230332 | 98 | 204 | 1.0 | 6.0 | 0.00 | 0.00 | 0.00 | 33 | 1015.0 |
| 20260830225831 | 98 | 194 | 3.0 | 10.0 | 0.00 | 0.00 | 0.00 | 35 | 1015.1 |
| 20260830225326 | 97 | 248 | 2.0 | 6.0 | 0.00 | 0.00 | 0.00 | 35 | 1015.1 |
| 20260830224821 | 97 | 192 | 1.0 | 4.0 | 0.00 | 0.00 | 0.00 | 36 | 1015.1 |
| 20260830224315 | 97 | 180 | 5.0 | 7.0 | 0.00 | 0.00 | 0.00 | 35 | 1015.2 |
| 20260830223812 | 98 | 173 | 4.0 | 7.0 | 0.00 | 0.00 | 0.00 | 35 | 1015.3 |
| 20260830223308 | 97 | 189 | 4.0 | 7.0 | 0.00 | 0.00 | 0.00 | 36 | 1015.2 |
| 20260830222807 | 97 | 158 | 2.0 | 7.0 | 0.00 | 0.00 | 0.00 | 35 | 1015.1 |
| 20260830222306 | 99 | 189 | 7.0 | 8.0 | 0.00 | 0.00 | 0.00 | 33 | 1015.2 |
| 20260830221758 | 99 | 67 | 4.0 | 8.0 | 0.00 | 0.00 | 0.00 | 34 | 1015.0 |
| 20260830221255 | 98 | 184 | 3.0 | 8.0 | 0.00 | 0.00 | 0.00 | 35 | 1015.3 |
| 20260830220755 | 100 | 82 | 2.0 | 7.0 | 0.00 | 0.00 | 0.00 | 34 | 1015.3 |
| 20260830220255 | 101 | 221 | 3.0 | 9.0 | 0.00 | 0.00 | 0.00 | 33 | 1015.2 |
| 20260830215753 | 101 | 99 | 2.0 | 9.0 | 0.00 | 0.00 | 0.00 | 31 | 1015.3 |
| 20260830215248 | 100 | 85 | 4.0 | 6.0 | 0.00 | 0.00 | 0.00 | 32 | 1015.3 |
| 20260830214743 | 100 | 294 | 1.0 | 8.0 | 0.00 | 0.00 | 0.00 | 32 | 1015.4 |
| 20260830214243 | 100 | 214 | 1.0 | 9.0 | 0.00 | 0.00 | 0.00 | 31 | 1015.4 |
| 20260830213742 | 99 | 116 | 3.0 | 7.0 | 0.00 | 0.00 | 0.00 | 32 | 1015.3 |
| 20260830213237 | 99 | 187 | 3.0 | 7.0 | 0.00 | 0.00 | 0.00 | 32 | 1015.5 |
| 20260830212733 | 99 | 132 | 6.0 | 10.0 | 0.00 | 0.00 | 0.00 | 33 | 1015.6 |
| 20260830212229 | 99 | 167 | 2.0 | 8.0 | 0.00 | 0.00 | 0.00 | 32 | 1015.5 |
| 20260830211728 | 100 | 185 | 4.0 | 14.0 | 0.00 | 0.00 | 0.00 | 31 | 1015.5 |
| 20260830211227 | 102 | 221 | 8.0 | 11.0 | 0.00 | 0.00 | 0.00 | 31 | 1015.6 |
| 20260830210724 | 100 | 131 | 1.0 | 3.0 | 0.00 | 0.00 | 0.00 | 31 | 1015.7 |
| 20260830210222 | 100 | 217 | 4.0 | 10.0 | 0.00 | 0.00 | 0.00 | 31 | 1015.8 |
| 20260830205720 | 100 | 171 | 4.0 | 8.0 | 0.00 | 0.00 | 0.00 | 33 | 1015.9 |
| 20260830205216 | 100 | 178 | 2.0 | 6.0 | 0.00 | 0.00 | 0.00 | 33 | 1015.9 |
| 20260830204715 | 100 | 214 | 3.0 | 7.0 | 0.00 | 0.00 | 0.00 | 33 | 1016.1 |
| 20260830204215 | 100 | 244 | 1.0 | 8.0 | 0.00 | 0.00 | 0.00 | 33 | 1016.0 |
| 20260830203711 | 100 | 220 | 7.0 | 16.0 | 0.00 | 0.00 | 0.00 | 33 | 1016.1 |
| 20260830203206 | 100 | 110 | 2.0 | 6.0 | 0.00 | 0.00 | 0.00 | 34 | 1016.2 |
| 20260830202706 | 99 | 174 | 0.0 | 6.0 | 0.00 | 0.00 | 0.00 | 33 | 1016.4 |
| 20260830202202 | 100 | 194 | 5.0 | 9.0 | 0.00 | 0.00 | 0.00 | 32 | 1016.3 |
| 20260830201701 | 101 | 154 | 3.0 | 8.0 | 0.00 | 0.00 | 0.00 | 33 | 1016.3 |
| 20260830201156 | 100 | 165 | 2.0 | 4.0 | 0.00 | 0.00 | 0.00 | 33 | 1016.5 |
| 20260830200651 | 99 | 211 | 2.0 | 6.0 | 0.00 | 0.00 | 0.00 | 34 | 1016.5 |
| 20260830200150 | 99 | 162 | 5.0 | 9.0 | 0.00 | 0.00 | 0.00 | 34 | 1016.5 |
| 20260830195646 | 99 | 210 | 6.0 | 9.0 | 0.00 | 0.00 | 0.00 | 35 | 1016.7 |
| 20260830195144 | 99 | 218 | 7.0 | 10.0 | 0.00 | 0.00 | 0.00 | 34 | 1016.8 |
| 20260830194643 | 99 | 127 | 4.0 | 9.0 | 0.00 | 0.00 | 0.00 | 35 | 1016.9 |
| 20260830194143 | 99 | 216 | 6.0 | 8.0 | 0.00 | 0.00 | 0.00 | 35 | 1016.8 |
| 20260830193638 | 99 | 210 | 3.0 | 6.0 | 0.00 | 0.00 | 0.00 | 35 | 1016.9 |
| 20260830193138 | 99 | 256 | 2.0 | 6.0 | 0.00 | 0.00 | 0.00 | 34 | 1017.1 |
| 20260830192634 | 99 | 203 | 5.0 | 9.0 | 0.00 | 0.00 | 0.00 | 35 | 1017.0 |
| 20260830192129 | 100 | 187 | 9.0 | 13.0 | 0.00 | 0.00 | 0.00 | 36 | 1017.2 |
| 20260830191624 | 99 | 203 | 4.0 | 8.0 | 0.00 | 0.00 | 0.00 | 36 | 1017.4 |
| 20260830191119 | 98 | 41 | 3.0 | 7.0 | 0.00 | 0.00 | 0.00 | 36 | 1017.4 |
| 20260830190615 | 97 | 204 | 6.0 | 7.0 | 0.00 | 0.00 | 0.00 | 38 | 1017.4 |
| 20260830190110 | 97 | 205 | 9.0 | 13.0 | 0.00 | 0.00 | 0.00 | 36 | 1017.5 |
| 20260830185608 | 96 | 77 | 1.0 | 7.0 | 0.00 | 0.00 | 0.00 | 39 | 1017.5 |
| 20260830185105 | 97 | 216 | 7.0 | 11.0 | 0.00 | 0.00 | 0.00 | 38 | 1017.5 |
| 20260830184603 | 97 | 203 | 8.0 | 10.0 | 0.00 | 0.00 | 0.00 | 38 | 1017.8 |
| 20260830184058 | 96 | 227 | 1.0 | 7.0 | 0.00 | 0.00 | 0.00 | 38 | 1017.8 |
| 20260830183552 | 96 | 190 | 6.0 | 9.0 | 0.00 | 0.00 | 0.00 | 41 | 1017.8 |
| 20260830183049 | 98 | 211 | 6.0 | 15.0 | 0.00 | 0.00 | 0.00 | 40 | 1017.8 |
| 20260830182544 | 99 | 215 | 6.0 | 10.0 | 0.00 | 0.00 | 0.00 | 37 | 1018.0 |
| 20260830182040 | 97 | 167 | 4.0 | 6.0 | 0.00 | 0.00 | 0.00 | 41 | 1018.2 |
| 20260830181536 | 95 | 198 | 2.0 | 13.0 | 0.00 | 0.00 | 0.00 | 42 | 1018.2 |
| 20260830181035 | 95 | 167 | 3.0 | 4.0 | 0.00 | 0.00 | 0.00 | 44 | 1018.1 |
| 20260830180535 | 95 | 207 | 4.0 | 7.0 | 0.00 | 0.00 | 0.00 | 43 | 1018.4 |
| 20260830180034 | 96 | 226 | 4.0 | 7.0 | 0.00 | 0.00 | 0.00 | 42 | 1018.6 |
| 20260830175533 | 95 | 126 | 3.0 | 6.0 | 0.00 | 0.00 | 0.00 | 41 | 1018.6 |
| 20260830175028 | 95 | 208 | 5.0 | 10.0 | 0.00 | 0.00 | 0.00 | 43 | 1018.6 |
| 20260830174524 | 95 | 252 | 4.0 | 7.0 | 0.00 | 0.00 | 0.00 | 44 | 1018.8 |
| 20260830174024 | 95 | 158 | 8.0 | 13.0 | 0.00 | 0.00 | 0.00 | 43 | 1018.8 |
| 20260830173520 | 95 | 192 | 4.0 | 7.0 | 0.00 | 0.00 | 0.00 | 42 | 1019.0 |
| 20260830173015 | 95 | 183 | 3.0 | 7.0 | 0.00 | 0.00 | 0.00 | 42 | 1019.0 |
| 20260830172512 | 95 | 192 | 6.0 | 11.0 | 0.00 | 0.00 | 0.00 | 44 | 1019.3 |
| 20260830172008 | 94 | 251 | 3.0 | 10.0 | 0.00 | 0.00 | 0.00 | 46 | 1019.3 |
| 20260830171503 | 94 | 202 | 6.0 | 8.0 | 0.00 | 0.00 | 0.00 | 45 | 1019.4 |
| 20260830171003 | 93 | 267 | 2.0 | 9.0 | 0.00 | 0.00 | 0.00 | 45 | 1019.4 |
| 20260830170503 | 93 | 224 | 2.0 | 8.0 | 0.00 | 0.00 | 0.00 | 48 | 1019.6 |
| 20260830170001 | 92 | 186 | 10.0 | 11.0 | 0.00 | 0.00 | 0.00 | 47 | 1019.4 |
| 20260830165458 | 93 | 169 | 5.0 | 7.0 | 0.00 | 0.00 | 0.00 | 46 | 1019.6 |
| 20260830164953 | 92 | 221 | 8.0 | 10.0 | 0.00 | 0.00 | 0.00 | 47 | 1019.6 |
| 20260830164449 | 92 | 262 | 6.0 | 9.0 | 0.00 | 0.00 | 0.00 | 48 | 1019.6 |
| 20260830163945 | 92 | 176 | 3.0 | 10.0 | 0.00 | 0.00 | 0.00 | 49 | 1019.6 |
| 20260830163442 | 91 | 221 | 4.0 | 11.0 | 0.00 | 0.00 | 0.00 | 48 | 1019.8 |
| 20260830162941 | 91 | 211 | 6.0 | 8.0 | 0.00 | 0.00 | 0.00 | 51 | 1019.7 |
| 20260830162437 | 91 | 148 | 4.0 | 10.0 | 0.00 | 0.00 | 0.00 | 51 | 1019.9 |
| 20260830161937 | 91 | 216 | 7.0 | 11.0 | 0.00 | 0.00 | 0.00 | 51 | 1019.8 |
| 20260830161437 | 91 | 162 | 7.0 | 8.0 | 0.00 | 0.00 | 0.00 | 52 | 1019.8 |
| 20260830160932 | 90 | 205 | 0.0 | 6.0 | 0.00 | 0.00 | 0.00 | 55 | 1019.7 |
| 20260830160428 | 90 | 186 | 8.0 | 9.0 | 0.00 | 0.00 | 0.00 | 54 | 1019.8 |
| 20260830155923 | 90 | 191 | 6.0 | 8.0 | 0.00 | 0.00 | 0.00 | 55 | 1019.9 |
| 20260830155420 | 90 | 211 | 5.0 | 9.0 | 0.00 | 0.00 | 0.00 | 55 | 1019.9 |
| 20260830154914 | 89 | 219 | 3.0 | 8.0 | 0.00 | 0.00 | 0.00 | 57 | 1019.9 |
| 20260830154410 | 89 | 189 | 4.0 | 8.0 | 0.00 | 0.00 | 0.00 | 59 | 1019.7 |
| 20260830153907 | 88 | 202 | 6.0 | 7.0 | 0.00 | 0.00 | 0.00 | 59 | 1019.9 |
| 20260830153402 | 88 | 170 | 7.0 | 11.0 | 0.00 | 0.00 | 0.00 | 59 | 1019.6 |
| 20260830152900 | 87 | 146 | 3.0 | 6.0 | 0.00 | 0.00 | 0.00 | 61 | 1019.7 |
| 20260830152355 | 87 | 153 | 4.0 | 4.0 | 0.00 | 0.00 | 0.00 | 63 | 1019.8 |
| 20260830151850 | 86 | 202 | 3.0 | 7.0 | 0.00 | 0.00 | 0.00 | 65 | 1019.8 |
| 20260830151349 | 86 | 147 | 5.0 | 8.0 | 0.00 | 0.00 | 0.00 | 64 | 1019.7 |
| 20260830150844 | 86 | 200 | 8.0 | 10.0 | 0.00 | 0.00 | 0.00 | 65 | 1019.8 |
| 20260830150343 | 85 | 232 | 7.0 | 8.0 | 0.00 | 0.00 | 0.00 | 67 | 1019.8 |
| 20260830145838 | 85 | 184 | 4.0 | 8.0 | 0.00 | 0.00 | 0.00 | 67 | 1019.7 |
| 20260830145333 | 85 | 207 | 8.0 | 10.0 | 0.00 | 0.00 | 0.00 | 67 | 1019.7 |
| 20260830144828 | 85 | 184 | 4.0 | 7.0 | 0.00 | 0.00 | 0.00 | 69 | 1019.8 |
| 20260830144324 | 84 | 203 | 4.0 | 9.0 | 0.00 | 0.00 | 0.00 | 70 | 1019.7 |
| 20260830143820 | 84 | 231 | 3.0 | 7.0 | 0.00 | 0.00 | 0.00 | 70 | 1019.8 |
| 20260830143320 | 83 | 94 | 4.0 | 8.0 | 0.00 | 0.00 | 0.00 | 71 | 1019.8 |
| 20260830142814 | 83 | 211 | 3.0 | 4.0 | 0.00 | 0.00 | 0.00 | 71 | 1019.6 |
| 20260830142315 | 83 | 148 | 5.0 | 7.0 | 0.00 | 0.00 | 0.00 | 72 | 1019.5 |
| 20260830141810 | 82 | 207 | 4.0 | 7.0 | 0.00 | 0.00 | 0.00 | 72 | 1019.6 |
| 20260830141305 | 81 | 207 | 4.0 | 6.0 | 0.00 | 0.00 | 0.00 | 75 | 1019.8 |
| 20260830140800 | 81 | 154 | 5.0 | 9.0 | 0.00 | 0.00 | 0.00 | 75 | 1019.6 |
| 20260830140255 | 81 | 197 | 4.0 | 10.0 | 0.00 | 0.00 | 0.00 | 75 | 1019.7 |
| 20260830135749 | 81 | 177 | 0.0 | 3.0 | 0.00 | 0.00 | 0.00 | 76 | 1019.8 |
| 20260830135245 | 81 | 208 | 3.0 | 6.0 | 0.00 | 0.00 | 0.00 | 76 | 1019.5 |
| 20260830134741 | 80 | 204 | 4.0 | 6.0 | 0.00 | 0.00 | 0.00 | 76 | 1019.7 |
| 20260830134241 | 80 | 214 | 2.0 | 4.0 | 0.00 | 0.00 | 0.00 | 77 | 1019.7 |
| 20260830133736 | 79 | 168 | 3.0 | 3.0 | 0.00 | 0.00 | 0.00 | 78 | 1019.4 |
| 20260830133232 | 79 | 187 | 3.0 | 7.0 | 0.00 | 0.00 | 0.00 | 78 | 1019.4 |
| 20260830132728 | 79 | 197 | 4.0 | 4.0 | 0.00 | 0.00 | 0.00 | 78 | 1019.5 |
| 20260830132223 | 79 | 199 | 3.0 | 3.0 | 0.00 | 0.00 | 0.00 | 79 | 1019.5 |
| 20260830131722 | 79 | 171 | 1.0 | 3.0 | 0.00 | 0.00 | 0.00 | 80 | 1019.5 |
| 20260830131217 | 78 | 183 | 1.0 | 6.0 | 0.00 | 0.00 | 0.00 | 80 | 1019.3 |
| 20260830130712 | 78 | 206 | 2.0 | 4.0 | 0.00 | 0.00 | 0.00 | 80 | 1019.1 |
| 20260830130212 | 78 | 202 | 2.0 | 3.0 | 0.00 | 0.00 | 0.00 | 81 | 1019.3 |
| 20260830125711 | 77 | 205 | 2.0 | 3.0 | 0.00 | 0.00 | 0.00 | 82 | 1019.4 |
| 20260830125207 | 77 | 224 | 0.0 | 1.0 | 0.00 | 0.00 | 0.00 | 82 | 1018.9 |
| 20260830124704 | 77 | 212 | 2.0 | 2.0 | 0.00 | 0.00 | 0.00 | 83 | 1019.1 |
| 20260830124200 | 77 | 170 | 2.0 | 3.0 | 0.00 | 0.00 | 0.00 | 83 | 1019.1 |
| 20260830123657 | 76 | 183 | 3.0 | 3.0 | 0.00 | 0.00 | 0.00 | 83 | 1019.0 |
| 20260830123152 | 76 | 141 | 2.0 | 3.0 | 0.00 | 0.00 | 0.00 | 83 | 1018.8 |
| 20260830122650 | 76 | 195 | 0.0 | 2.0 | 0.00 | 0.00 | 0.00 | 84 | 1018.8 |
| 20260830122145 | 76 | 236 | 2.0 | 4.0 | 0.00 | 0.00 | 0.00 | 84 | 1018.8 |
| 20260830121641 | 76 | 187 | 2.0 | 2.0 | 0.00 | 0.00 | 0.00 | 83 | 1018.5 |
| 20260830121140 | 76 | 185 | 2.0 | 3.0 | 0.00 | 0.00 | 0.00 | 83 | 1018.5 |
| 20260830120635 | 76 | 192 | 1.0 | 2.0 | 0.00 | 0.00 | 0.00 | 83 | 1018.5 |
| 20260830120131 | 76 | 221 | 0.0 | 1.0 | 0.00 | 0.00 | 0.00 | 83 | 1018.2 |
| 20260830115627 | 76 | 199 | 2.0 | 3.0 | 0.00 | 0.00 | 0.00 | 83 | 1018.5 |